Погода в Красносельском

Россия / Республика Крым     45°10′58″N   35°11′21″E
темп.,
°C
ветер,
м/с
пор.,
м/с
влажн.,
%
обл.,
%
осадки,
мм/ч
давл.,
гПа
погр.,
м
4 августа, ср
ср400:00+24з227824 0.0 1014139
03:00+24сз347422 0.0 1015224
06:00+24зсз337676 0.0 1015244
09:00+26ссз237024 0.0 1015645
12:00+29ссв53553 0.0 1016987
15:00+29ссв5454100 0.1 1015852
18:00+28св545746 0.1 1015602
21:00+25в22663 0.1 1015131
5 августа, чт
чт500:00+24всв12645 0.0 1016162
03:00+25всв3666100 0.0 1015299
06:00+24вюв24702 0.0 1015183
09:00+29св44465 0.0 1014882
12:00+30ссв64445 0.0 10141059
15:00+30св65455 0.0 1013799
18:00+28св55483 0.0 1012496
21:00+25всв22590 0.0 101176
6 августа, пт
пт600:00+24юв11590 0.0 101040
03:00+23ю11553 0.0 100834
06:00+23ссз12540 0.0 100870
09:00+29св34415 0.0 1007548
12:00+32св54385 0.0 1006876
15:00+32св544512 0.0 1004860
18:00+32в43431 0.0 1003476
21:00+26ююв33520 0.0 100354
7 августа, сб
сб700:00+25зюз45580 0.0 100389
03:00+24зсз34660 0.0 100387
06:00+23зсз4568100 0.0 1003112
09:00+28зсз5551100 0.0 1004428
12:00+31ссв5545100 0.0 1004867
15:00+31ссв5644100 0.0 1004495
18:00+31св334673 0.0 1005293
21:00+27зсз0160100 0.2 100612
8 августа, вс
вс800:00+26з4663100 0.0 1006158
03:00+26сз6876100 0.3 1008406
06:00+24сз6878100 0.0 1009485
09:00+26сз776792 0.0 1010701
12:00+29ссз665814 0.0 1010814
15:00+29ссв775654 0.0 1011785
18:00+30с565254 0.0 1011681
21:00+28сз455339 0.0 101285